📊 Raw Sensor Data
Showing records 52801 to 52825 of 85,311 total
| ID | Distance (ft) | Battery V | Battery A | Int Temp (°F) | Int Humid (%) | Ext Temp (°F) | Solar V | RSSI | SNR | Time Stamp |
|---|---|---|---|---|---|---|---|---|---|---|
| 32523 | 12.6 | 3.57 | -5 | 42 | 37 | 43 | 0.00 | -86 | 8 | 02/16/2025 06:30 AM |
| 32522 | 12.5 | 3.55 | -5 | 41 | 37 | 42 | 0.00 | -87 | 8 | 02/16/2025 06:15 AM |
| 32521 | 12.6 | 3.76 | -5 | 41 | 37 | 43 | 0.00 | -87 | 8 | 02/16/2025 06:00 AM |
| 32520 | 12.6 | 3.76 | -5 | 41 | 37 | 42 | 0.10 | -89 | 8 | 02/16/2025 05:45 AM |
| 32519 | 12.5 | 3.56 | -5 | 40 | 37 | 43 | 0.10 | -89 | 7 | 02/16/2025 05:30 AM |
| 32518 | 12.6 | 3.57 | -5 | 40 | 37 | 42 | 0.00 | -89 | 8 | 02/16/2025 05:15 AM |
| 32517 | 12.5 | 3.63 | -5 | 41 | 37 | 42 | 0.00 | -89 | 7 | 02/16/2025 05:00 AM |
| 32516 | 12.5 | 3.77 | -5 | 41 | 37 | 42 | 0.00 | -88 | 7 | 02/16/2025 04:45 AM |
| 32515 | 12.5 | 3.77 | -5 | 40 | 37 | 42 | 0.00 | -88 | 8 | 02/16/2025 04:30 AM |
| 32514 | 12.5 | 3.62 | -5 | 40 | 37 | 41 | 0.00 | -88 | 8 | 02/16/2025 04:15 AM |
| 32513 | 12.5 | 3.63 | -5 | 40 | 37 | 42 | 0.00 | -90 | 7 | 02/16/2025 04:00 AM |
| 32512 | 12.5 | 3.63 | -5 | 39 | 38 | 42 | 0.00 | -86 | 8 | 02/16/2025 03:45 AM |
| 32511 | 12.6 | 3.78 | -5 | 39 | 38 | 39 | 0.00 | -90 | 8 | 02/16/2025 03:30 AM |
| 32510 | 12.6 | 3.62 | -5 | 39 | 38 | 40 | 0.10 | -86 | 7 | 02/16/2025 03:15 AM |
| 32509 | 12.6 | 3.59 | -5 | 40 | 37 | 40 | 0.00 | -86 | 9 | 02/16/2025 03:00 AM |
| 32508 | 12.6 | 3.62 | -5 | 40 | 37 | 42 | 0.00 | -86 | 8 | 02/16/2025 02:45 AM |
| 32507 | 12.6 | 3.78 | -5 | 40 | 38 | 42 | 0.00 | -85 | 8 | 02/16/2025 02:30 AM |
| 32506 | 12.6 | 3.61 | -5 | 40 | 37 | 42 | 0.10 | -85 | 8 | 02/16/2025 02:15 AM |
| 32505 | 12.6 | 3.62 | -5 | 41 | 37 | 43 | 0.10 | -86 | 8 | 02/16/2025 02:00 AM |
| 32504 | 12.6 | 3.60 | -5 | 40 | 38 | 43 | 0.00 | -87 | 8 | 02/16/2025 01:45 AM |
| 32503 | 12.5 | 3.59 | -5 | 40 | 38 | 43 | 0.10 | -87 | 7 | 02/16/2025 01:30 AM |
| 32502 | 12.6 | 3.78 | -5 | 40 | 38 | 44 | 0.00 | -91 | 8 | 02/16/2025 01:15 AM |
| 32501 | 12.6 | 3.59 | -5 | 41 | 38 | 43 | 0.00 | -88 | 8 | 02/16/2025 01:00 AM |
| 32500 | 12.6 | 3.60 | -5 | 41 | 38 | 43 | 0.00 | -86 | 8 | 02/16/2025 12:45 AM |
| 32499 | 12.5 | 3.78 | -5 | 41 | 38 | 43 | 0.10 | -86 | 8 | 02/16/2025 12:30 AM |